Regional Weather Roundup
Issued by NWS Northern Indiana

Home | Current Version | Previous Version | Graphics & Text | Print | Product List | Glossary On
Versions: 1 2 3 4 5 6 7 8 9 10 11 12 13 14 15 16 17 18 19 20 21 22 23 24 25 26 27 28 29 30 31 32 33 34 35 36 37 38 39 40 41 42 43 44 45 46 47 48 49 50
823
ASUS43 KIWX 260200
RWRIWX

KIWX WEATHER ROUNDUP
NATIONAL WEATHER SERVICE NORTHERN INDIANA
1000 PM EDT TUE APR 25 2017

NOTE: "FAIR" INDICATES FEW OR NO CLOUDS BELOW 12,000 FEET WITH NO
SIGNIFICANT WEATHER AND/OR OBSTRUCTIONS TO VISIBILITY.

* THESE STATIONS ARE NOT UNDER NWS QUALITY CONTROL. THEY ALSO MAY NOT
  REPORT WEATHER SUCH AS PRECIPITATION OR FOG.

INZ001>027-260300-
NORTHERN INDIANA

CITY           SKY/WX    TMP DP  RH WIND       PRES   REMARKS
GARY*          CLOUDY    73  48  40 SE9       29.57S
MICHIGAN CITY* PTCLDY    68  54  60 SE3       29.60R
KNOX*          CLEAR     66  32  28 S6        29.60R
SOUTH BEND     CLEAR     67  54  63 SE6       29.62R
GOSHEN         MOCLDY    64  53  67 SE7       29.63R
MONTICELLO*    PTCLDY    69  53  57 SE3       29.59S
WARSAW*        CLOUDY    64  54  68 CALM      29.63S
ANGOLA*        CLEAR     66  55  68 E9        29.66R
FORT WAYNE     MOCLDY    67  53  61 SE7       29.65R
HUNTINGTON*    CLOUDY    67  54  62 SE5       29.64R
PERU/GRISSOM   PTCLDY    66  56  71 SE8       29.61R

$$
INZ028>050-260300-
CENTRAL INDIANA

CITY           SKY/WX    TMP DP  RH WIND       PRES   REMARKS
LAFAYETTE      PTCLDY    67  55  65 SE3       29.59R
KOKOMO*        PTCLDY    66  56  70 SE9       29.64R
MUNCIE*        PTCLDY    70  54  56 S7        29.65S
INDIANAPOLIS   PTCLDY    68  55  63 SE10      29.63R

$$
MIZ043>046-050>051-056>058-064>065-071>073-077>080-260300-
SOUTHWEST LOWER MICHIGAN

CITY           SKY/WX    TMP DP  RH WIND       PRES   REMARKS
BATTLE CREEK   PTCLDY    68  54  60 SE9       29.67R
BENTON HARBOR  CLOUDY    65  53  65 E5        29.61R
COLDWATER*     PTCLDY    63  54  71 E5        29.67R
HILLSDALE*     CLOUDY    59  50  72 E9        29.69R
HOLLAND        CLOUDY    64  55  72 E6        29.63F
GRAND RAPIDS   CLOUDY    65  56  72 E7        29.65R
KALAMAZOO      CLOUDY    66  52  60 E5        29.66R
STURGIS*       CLOUDY    66  54  64 SE6       29.64R
THREE RIVERS*  FAIR      65  53  65 E3        29.65R

$$
OHZ001>008-015>018-024>025-260300-
NORTHWEST OHIO

CITY           SKY/WX    TMP DP  RH WIND       PRES   REMARKS
DEFIANCE       CLEAR     62  53  72 E10       29.67R
FINDLAY        CLEAR     67  50  54 SE8       29.68R
TOLEDO EXPRESS CLEAR     56  52  86 E8        29.69S
TOLEDO METCALF CLEAR     55  52  89 E7        29.71R
LIMA           CLEAR     66  53  63 SE9       29.69R

$$
AND FOR LAKE MICHIGAN COASTAL AND OPEN LAKE BUOY OBSERVATIONS

STATION/POSITION TEMP    WIND        PRES    VSBY  WAVE
                 AIR SEA DIR/SP/G                  HT/PER
                 (F)     (DEG/KT/KT) (MB)    (MI)  (FT/S)
CALUMET HARBOR    73     130/  6/ 12 1000.6F
MICHIGAN CITY     71     130/  7/  9   N/A
BURNS HARBOR      74     150/ 11/ 17 1002.0
SOUTH LAKE BUOY   49 42   70/ 10/ 12 1002.4          1
4 MI NW BRIDGMAN  65 50  130/  6/  6 1002.5R         0

$$
&&




USA.gov is the U.S. government's official web portal to all federal, state and local government web resources and services.